EWG2619 LGKR-EDDS

Flight info

Callsign EWG2619
Flight time 2h 3m
Altitude 38000
Route OLGAT DCT GONOT DCT CRAYE DCT GISAM DCT SIPAL DCT NEMEK DCT INGID DCT TITIG L173 MAH/N0362F240 L173 DODIL T127 TEKSI TEKSI5A
Aircraft A20N/M-SDE2E3FGHIJ1RWXY/LB1

Departure

Time 2026-04-30 18:11
Airport Corfu Ioannis Kapodistrias International Airport (LGKR)

Arrival

Time 2026-04-30 20:14
Airport Stuttgart Airport (EDDS)
Time Latitude Longitude Altitude Speed Heading
2026-04-30 17:41 39.60746 19.91342 3 ft 0 kts 78°
2026-04-30 18:02 39.60744 19.91333 3 ft 2 kts 83°
2026-04-30 18:02 39.60756 19.91279 4 ft 2 kts 128°
2026-04-30 18:03 39.60794 19.91249 4 ft 2 kts 171°
2026-04-30 18:04 39.60799 19.91248 4 ft 0 kts 169°
2026-04-30 18:07 39.60563 19.91203 2 ft 14 kts 193°
2026-04-30 18:08 39.60186 19.91212 1 ft 23 kts 169°
2026-04-30 18:09 39.59407 19.91411 4 ft 25 kts 169°
2026-04-30 18:10 39.59258 19.91454 4 ft 26 kts 351°
2026-04-30 18:11 39.62974 19.90550 1091 ft 177 kts 350°
2026-04-30 18:11 39.65671 19.87676 2790 ft 211 kts 275°
2026-04-30 18:12 39.65482 19.81495 4867 ft 235 kts 271°
2026-04-30 18:13 39.66479 19.77452 5965 ft 256 kts 315°
2026-04-30 18:13 39.70054 19.73223 8203 ft 266 kts 318°
2026-04-30 18:14 39.73169 19.69260 10196 ft 272 kts 315°
2026-04-30 18:15 39.77405 19.63624 11930 ft 306 kts 314°
2026-04-30 18:15 39.81905 19.57563 14235 ft 315 kts 313°
2026-04-30 18:16 39.84968 19.53427 15701 ft 320 kts 312°
2026-04-30 18:16 39.88102 19.49225 17114 ft 325 kts 311°
2026-04-30 18:17 39.89658 19.47142 17776 ft 327 kts 311°
2026-04-30 18:17 39.91259 19.44992 18441 ft 330 kts 311°
2026-04-30 18:17 39.94464 19.40681 19752 ft 334 kts 311°
2026-04-30 18:18 39.96074 19.38514 20381 ft 336 kts 311°
2026-04-30 18:18 39.97697 19.36327 20982 ft 338 kts 311°
2026-04-30 18:18 39.99341 19.34110 21487 ft 343 kts 310°
2026-04-30 18:18 40.01006 19.31862 22051 ft 346 kts 310°
2026-04-30 18:19 40.02670 19.29616 22636 ft 348 kts 310°
2026-04-30 18:19 40.04354 19.27342 23217 ft 350 kts 310°
2026-04-30 18:19 40.06060 19.25036 23772 ft 352 kts 310°
2026-04-30 18:19 40.07751 19.22747 24331 ft 354 kts 309°
2026-04-30 18:20 40.09455 19.20433 24847 ft 356 kts 310°
2026-04-30 18:20 40.11185 19.18088 25340 ft 359 kts 310°
2026-04-30 18:20 40.12922 19.15731 25823 ft 362 kts 310°
2026-04-30 18:20 40.14672 19.13357 26300 ft 364 kts 310°
2026-04-30 18:21 40.16431 19.10967 26785 ft 366 kts 310°
2026-04-30 18:21 40.18190 19.08573 27233 ft 368 kts 310°
2026-04-30 18:21 40.19955 19.06174 27694 ft 369 kts 310°
2026-04-30 18:21 40.21744 19.03764 28154 ft 371 kts 312°
2026-04-30 18:22 40.23698 19.01525 28579 ft 376 kts 317°
2026-04-30 18:22 40.28161 18.97825 29391 ft 386 kts 327°
2026-04-30 18:22 40.30598 18.96295 29790 ft 389 kts 329°
2026-04-30 18:23 40.33064 18.94791 30126 ft 391 kts 329°
2026-04-30 18:23 40.35554 18.93282 30463 ft 393 kts 329°
2026-04-30 18:23 40.38034 18.91776 30873 ft 393 kts 329°
2026-04-30 18:23 40.40485 18.90289 31344 ft 391 kts 329°
2026-04-30 18:24 40.45405 18.87299 32280 ft 386 kts 329°
2026-04-30 18:24 40.47832 18.85819 32677 ft 385 kts 328°
2026-04-30 18:24 40.50242 18.84349 33081 ft 383 kts 328°
2026-04-30 18:25 40.52645 18.82882 33491 ft 381 kts 328°
2026-04-30 18:25 40.57454 18.79943 34174 ft 379 kts 328°
2026-04-30 18:25 40.59843 18.78480 34465 ft 378 kts 328°
2026-04-30 18:26 40.64580 18.75574 34937 ft 378 kts 328°
2026-04-30 18:26 40.66990 18.74093 35146 ft 378 kts 328°
2026-04-30 18:26 40.69341 18.72650 35342 ft 378 kts 328°
2026-04-30 18:27 40.74121 18.69708 35698 ft 379 kts 328°
2026-04-30 18:27 40.76504 18.68244 35871 ft 379 kts 329°
2026-04-30 18:28 40.81296 18.65289 36166 ft 380 kts 329°
2026-04-30 18:28 40.83670 18.63824 36336 ft 380 kts 329°
2026-04-30 18:28 40.88469 18.60858 36697 ft 381 kts 329°
2026-04-30 18:29 40.90869 18.59375 36862 ft 381 kts 329°
2026-04-30 18:29 40.98096 18.54897 37235 ft 385 kts 329°
2026-04-30 18:30 41.02172 18.52369 37409 ft 387 kts 329°
2026-04-30 18:30 41.07846 18.48840 37693 ft 389 kts 329°
2026-04-30 18:31 41.10305 18.47308 37821 ft 389 kts 329°
2026-04-30 18:31 41.15247 18.44225 38029 ft 391 kts 329°
2026-04-30 18:32 41.22550 18.39422 38086 ft 391 kts 325°
2026-04-30 18:33 41.29284 18.33408 38089 ft 388 kts 319°
2026-04-30 18:33 41.35805 18.27065 38088 ft 388 kts 320°
2026-04-30 18:34 41.42359 18.20674 38095 ft 389 kts 319°
2026-04-30 18:35 41.46703 18.16427 38089 ft 389 kts 320°
2026-04-30 18:35 41.51120 18.12191 38102 ft 392 kts 322°
2026-04-30 18:36 41.57922 18.06158 38097 ft 391 kts 322°
2026-04-30 18:37 41.64719 18.00133 38107 ft 391 kts 322°
2026-04-30 18:37 41.69254 17.96096 38103 ft 391 kts 322°
2026-04-30 18:38 41.73780 17.92063 38108 ft 392 kts 322°
2026-04-30 18:38 41.78320 17.88005 38108 ft 393 kts 322°
2026-04-30 18:39 41.82856 17.83948 38109 ft 393 kts 322°
2026-04-30 18:39 41.87406 17.79868 38114 ft 393 kts 323°
2026-04-30 18:40 41.92108 17.76095 38114 ft 397 kts 328°
2026-04-30 18:40 41.97109 17.72978 38120 ft 400 kts 333°
2026-04-30 18:41 42.02252 17.70128 38116 ft 401 kts 333°
2026-04-30 18:41 42.07435 17.67265 38117 ft 402 kts 333°
2026-04-30 18:42 42.12606 17.64401 38120 ft 401 kts 333°
2026-04-30 18:42 42.20336 17.60112 38134 ft 400 kts 334°
2026-04-30 18:45 42.48590 17.44323 38141 ft 401 kts 334°
2026-04-30 18:46 42.53754 17.41423 38140 ft 401 kts 334°
2026-04-30 18:46 42.58880 17.38536 38134 ft 402 kts 334°
2026-04-30 18:47 42.64045 17.35625 38141 ft 402 kts 334°
2026-04-30 18:47 42.69202 17.32711 38145 ft 401 kts 334°
2026-04-30 18:48 42.74329 17.29810 38142 ft 401 kts 334°
2026-04-30 18:48 42.79496 17.26880 38142 ft 402 kts 334°
2026-04-30 18:49 42.84661 17.23945 38150 ft 402 kts 334°
2026-04-30 18:49 42.89809 17.21014 38142 ft 403 kts 334°
2026-04-30 18:50 42.94985 17.18063 38141 ft 403 kts 334°
2026-04-30 18:50 43.00152 17.15112 38141 ft 402 kts 334°
2026-04-30 18:51 43.05294 17.12169 38145 ft 403 kts 334°
2026-04-30 18:51 43.10462 17.09206 38154 ft 403 kts 334°
2026-04-30 18:52 43.15601 17.06028 38158 ft 403 kts 331°
2026-04-30 18:52 43.20578 17.02574 38169 ft 402 kts 330°
2026-04-30 18:53 43.25557 16.99096 38190 ft 403 kts 330°
2026-04-30 18:53 43.30564 16.95593 38198 ft 403 kts 331°
2026-04-30 18:54 43.35551 16.92101 38205 ft 404 kts 331°
2026-04-30 18:54 43.40554 16.88593 38205 ft 403 kts 331°
2026-04-30 18:55 43.45557 16.85079 38205 ft 403 kts 331°
2026-04-30 18:55 43.53068 16.79788 38207 ft 404 kts 331°
2026-04-30 18:56 43.60532 16.74517 38206 ft 404 kts 331°
2026-04-30 18:57 43.68047 16.69196 38223 ft 405 kts 331°
2026-04-30 18:57 43.73034 16.65656 38210 ft 403 kts 331°
2026-04-30 18:58 43.80524 16.60326 38208 ft 403 kts 332°
2026-04-30 18:59 43.88027 16.54972 38199 ft 404 kts 332°
2026-04-30 19:00 43.98012 16.47822 38186 ft 405 kts 332°
2026-04-30 19:01 44.08007 16.40639 38196 ft 405 kts 332°
2026-04-30 19:02 44.15496 16.35241 38195 ft 404 kts 332°
2026-04-30 19:03 44.25490 16.28009 38187 ft 404 kts 332°
2026-04-30 19:04 44.35455 16.20772 38182 ft 404 kts 332°
2026-04-30 19:05 44.45425 16.13500 38193 ft 405 kts 332°
2026-04-30 19:06 44.55413 16.06189 38216 ft 405 kts 332°
2026-04-30 19:06 44.62909 16.00684 38244 ft 406 kts 332°
2026-04-30 19:07 44.70374 15.95186 38263 ft 405 kts 332°
2026-04-30 19:08 44.80353 15.87808 38271 ft 404 kts 332°
2026-04-30 19:09 44.87801 15.82285 38283 ft 405 kts 332°
2026-04-30 19:09 44.92786 15.78579 38290 ft 405 kts 332°
2026-04-30 19:10 45.02759 15.71141 38314 ft 405 kts 333°
2026-04-30 19:11 45.10196 15.65574 38326 ft 404 kts 333°
2026-04-30 19:12 45.15175 15.61840 38323 ft 404 kts 333°
2026-04-30 19:12 45.20153 15.58100 38326 ft 405 kts 333°
2026-04-30 19:13 45.30094 15.50604 38336 ft 405 kts 333°
2026-04-30 19:14 45.35094 15.46821 38344 ft 405 kts 333°
2026-04-30 19:14 45.40065 15.43054 38339 ft 405 kts 333°
2026-04-30 19:15 45.45035 15.39280 38336 ft 405 kts 333°
2026-04-30 19:15 45.52490 15.33602 38337 ft 406 kts 332°
2026-04-30 19:16 45.57352 15.29830 38333 ft 406 kts 330°
2026-04-30 19:17 45.64491 15.23374 38331 ft 406 kts 328°
2026-04-30 19:17 45.71596 15.16819 38328 ft 406 kts 328°
2026-04-30 19:18 45.78708 15.10244 38324 ft 408 kts 328°
2026-04-30 19:19 45.83442 15.05857 38318 ft 407 kts 328°
2026-04-30 19:19 45.90568 14.99238 38320 ft 407 kts 328°
2026-04-30 19:20 45.95335 14.94799 38325 ft 407 kts 329°
2026-04-30 19:21 46.02445 14.88162 38335 ft 407 kts 328°
2026-04-30 19:22 46.11966 14.79236 38342 ft 408 kts 329°
2026-04-30 19:23 46.26200 14.65827 38344 ft 408 kts 329°
2026-04-30 19:24 46.33291 14.59114 38344 ft 408 kts 329°
2026-04-30 19:25 46.45113 14.47879 38321 ft 409 kts 329°
2026-04-30 19:26 46.54610 14.38808 38332 ft 408 kts 330°
2026-04-30 19:27 46.61583 14.32127 38340 ft 408 kts 329°
2026-04-30 19:28 46.68690 14.25292 38371 ft 409 kts 329°
2026-04-30 19:29 46.78163 14.16149 38361 ft 408 kts 329°
2026-04-30 19:30 46.87636 14.06965 38347 ft 408 kts 330°
2026-04-30 19:31 46.97082 13.97769 38334 ft 410 kts 330°
2026-04-30 19:31 47.04195 13.90817 38310 ft 411 kts 330°
2026-04-30 19:32 47.08921 13.86185 38295 ft 410 kts 330°
2026-04-30 19:32 47.13656 13.81538 38288 ft 410 kts 330°
2026-04-30 19:33 47.18386 13.76878 38279 ft 410 kts 330°
2026-04-30 19:33 47.23120 13.72207 38294 ft 409 kts 330°
2026-04-30 19:34 47.27674 13.67187 38298 ft 413 kts 325°
2026-04-30 19:35 47.34049 13.58497 38294 ft 416 kts 322°
2026-04-30 19:35 47.38220 13.52645 38305 ft 415 kts 322°
2026-04-30 19:36 47.42384 13.46791 38307 ft 415 kts 322°
2026-04-30 19:36 47.48663 13.37947 38291 ft 415 kts 322°
2026-04-30 19:37 47.52816 13.32085 38303 ft 416 kts 321°
2026-04-30 19:37 47.57008 13.26146 38303 ft 415 kts 322°
2026-04-30 19:38 47.61166 13.20250 38303 ft 415 kts 322°
2026-04-30 19:38 47.65355 13.14295 38318 ft 416 kts 322°
2026-04-30 19:39 47.69502 13.08381 38334 ft 416 kts 322°
2026-04-30 19:39 47.73651 13.02449 38183 ft 410 kts 322°
2026-04-30 19:40 47.75687 12.99529 37715 ft 410 kts 323°
2026-04-30 19:40 47.77760 12.96554 37289 ft 406 kts 323°
2026-04-30 19:40 47.79785 12.93645 36926 ft 403 kts 323°
2026-04-30 19:40 47.81805 12.90747 36588 ft 404 kts 324°
2026-04-30 19:41 47.83784 12.87756 36207 ft 409 kts 318°
2026-04-30 19:41 47.85463 12.84313 35870 ft 419 kts 310°
2026-04-30 19:41 47.86844 12.80429 35493 ft 428 kts 305°
2026-04-30 19:41 47.88111 12.76435 35093 ft 431 kts 304°
2026-04-30 19:42 47.89366 12.72399 34691 ft 431 kts 305°
2026-04-30 19:42 47.90635 12.68328 34187 ft 434 kts 305°
2026-04-30 19:42 47.91901 12.64284 33683 ft 436 kts 305°
2026-04-30 19:42 47.93192 12.60171 33169 ft 437 kts 305°
2026-04-30 19:43 47.94467 12.56108 32662 ft 438 kts 305°
2026-04-30 19:43 47.95765 12.51976 32141 ft 440 kts 305°
2026-04-30 19:43 47.97060 12.47855 31625 ft 443 kts 305°
2026-04-30 19:44 47.99681 12.39485 30571 ft 446 kts 304°
2026-04-30 19:44 48.00997 12.35270 30037 ft 446 kts 304°
2026-04-30 19:44 48.02301 12.31087 29500 ft 443 kts 303°
2026-04-30 19:44 48.03581 12.26964 28972 ft 439 kts 303°
2026-04-30 19:45 48.04855 12.22858 28485 ft 434 kts 303°
2026-04-30 19:45 48.06112 12.18804 28333 ft 432 kts 303°
2026-04-30 19:45 48.07380 12.14714 28324 ft 434 kts 303°
2026-04-30 19:46 48.09911 12.06524 28322 ft 433 kts 303°
2026-04-30 19:46 48.12427 11.98362 28320 ft 434 kts 303°
2026-04-30 19:47 48.14961 11.90109 28316 ft 435 kts 303°
2026-04-30 19:47 48.17075 11.81629 28129 ft 449 kts 289°
2026-04-30 19:47 48.17585 11.76980 27733 ft 447 kts 285°
2026-04-30 19:48 48.18005 11.72408 27337 ft 444 kts 284°
2026-04-30 19:48 48.18407 11.67895 26941 ft 440 kts 284°
2026-04-30 19:48 48.18815 11.63363 26540 ft 438 kts 284°
2026-04-30 19:48 48.19224 11.58871 26149 ft 434 kts 284°
2026-04-30 19:49 48.19631 11.54407 25756 ft 432 kts 284°
2026-04-30 19:49 48.20457 11.45572 24965 ft 425 kts 284°
2026-04-30 19:49 48.20866 11.41250 24576 ft 422 kts 284°
2026-04-30 19:50 48.21280 11.36887 24178 ft 419 kts 284°
2026-04-30 19:50 48.21692 11.32613 23790 ft 416 kts 284°
2026-04-30 19:50 48.22108 11.28352 23393 ft 414 kts 284°
2026-04-30 19:50 48.22524 11.24090 22990 ft 412 kts 284°
2026-04-30 19:51 48.22936 11.19895 22605 ft 408 kts 284°
2026-04-30 19:51 48.23356 11.15703 22197 ft 405 kts 284°
2026-04-30 19:51 48.23781 11.11533 21795 ft 403 kts 284°
2026-04-30 19:51 48.24182 11.07634 21419 ft 400 kts 284°
2026-04-30 19:52 48.24613 11.03500 21039 ft 398 kts 284°
2026-04-30 19:52 48.25035 10.99473 20653 ft 395 kts 284°
2026-04-30 19:52 48.25468 10.95388 20349 ft 392 kts 284°
2026-04-30 19:52 48.25901 10.91375 20322 ft 392 kts 284°
2026-04-30 19:53 48.26339 10.87319 20319 ft 393 kts 284°
2026-04-30 19:53 48.26773 10.83308 20319 ft 393 kts 284°
2026-04-30 19:53 48.27212 10.79335 20316 ft 392 kts 286°
2026-04-30 19:53 48.27794 10.75387 20078 ft 390 kts 289°
2026-04-30 19:54 48.28457 10.71408 19680 ft 386 kts 289°
2026-04-30 19:54 48.29068 10.67782 19245 ft 383 kts 289°
2026-04-30 19:54 48.29701 10.63973 18808 ft 380 kts 289°
2026-04-30 19:54 48.30330 10.60143 18341 ft 378 kts 289°
2026-04-30 19:55 48.30885 10.56721 17917 ft 375 kts 288°
2026-04-30 19:55 48.31060 10.55634 17781 ft 375 kts 288°
2026-04-30 19:55 48.31237 10.54538 17616 ft 374 kts 288°
2026-04-30 19:55 48.31717 10.51544 17253 ft 372 kts 288°
2026-04-30 19:56 48.32327 10.47729 16799 ft 369 kts 288°
2026-04-30 19:56 48.32912 10.44048 16335 ft 367 kts 288°
2026-04-30 19:56 48.33498 10.40362 15860 ft 365 kts 287°
2026-04-30 19:56 48.34074 10.36715 15569 ft 361 kts 287°
2026-04-30 19:57 48.34623 10.33230 15432 ft 363 kts 287°
2026-04-30 19:57 48.35119 10.30080 15301 ft 363 kts 287°
2026-04-30 19:57 48.35706 10.26347 15147 ft 362 kts 287°
2026-04-30 19:57 48.36288 10.22631 14992 ft 361 kts 286°
2026-04-30 19:58 48.36862 10.18949 14835 ft 360 kts 287°
2026-04-30 19:58 48.37444 10.15218 14677 ft 359 kts 286°
2026-04-30 19:58 48.38012 10.11577 14524 ft 358 kts 286°
2026-04-30 19:58 48.38582 10.07908 14354 ft 357 kts 286°
2026-04-30 19:59 48.39141 10.04293 14188 ft 356 kts 286°
2026-04-30 19:59 48.39705 10.00637 13973 ft 356 kts 286°
2026-04-30 19:59 48.40818 9.93409 13483 ft 353 kts 286°
2026-04-30 20:00 48.41369 9.89822 13234 ft 351 kts 285°
2026-04-30 20:00 48.41920 9.86221 12981 ft 350 kts 285°
2026-04-30 20:00 48.42464 9.82663 12740 ft 349 kts 285°
2026-04-30 20:00 48.43008 9.79100 12501 ft 347 kts 285°
2026-04-30 20:01 48.44087 9.72006 12014 ft 345 kts 285°
2026-04-30 20:01 48.44616 9.68514 11771 ft 345 kts 285°
2026-04-30 20:01 48.45145 9.65013 11535 ft 343 kts 285°
2026-04-30 20:02 48.46201 9.57996 10890 ft 340 kts 285°
2026-04-30 20:02 48.46721 9.54537 10588 ft 334 kts 284°
2026-04-30 20:03 48.47688 9.48055 10349 ft 309 kts 285°
2026-04-30 20:03 48.48149 9.44949 10169 ft 301 kts 284°
2026-04-30 20:03 48.48616 9.41817 9799 ft 300 kts 284°
2026-04-30 20:03 48.49079 9.38711 9436 ft 298 kts 285°
2026-04-30 20:04 48.49527 9.35693 9087 ft 297 kts 284°
2026-04-30 20:04 48.49981 9.32634 8733 ft 296 kts 284°
2026-04-30 20:04 48.50435 9.29562 8381 ft 294 kts 284°
2026-04-30 20:05 48.51320 9.23554 7700 ft 291 kts 283°
2026-04-30 20:05 48.51754 9.20601 7372 ft 289 kts 283°
2026-04-30 20:05 48.52614 9.14730 6721 ft 286 kts 283°
2026-04-30 20:06 48.53048 9.11760 6392 ft 285 kts 283°
2026-04-30 20:06 48.53470 9.08853 6068 ft 283 kts 283°
2026-04-30 20:06 48.53889 9.05963 5750 ft 282 kts 283°
2026-04-30 20:06 48.54308 9.03068 5439 ft 281 kts 283°
2026-04-30 20:07 48.54724 9.00195 5128 ft 280 kts 283°
2026-04-30 20:07 48.55181 8.97347 4858 ft 275 kts 292°
2026-04-30 20:07 48.57874 8.94048 4286 ft 242 kts
2026-04-30 20:08 48.59479 8.94196 4117 ft 225 kts 17°
2026-04-30 20:08 48.60981 8.94582 4067 ft 211 kts 18°
2026-04-30 20:08 48.62212 8.94887 4033 ft 200 kts 18°
2026-04-30 20:08 48.63394 8.95609 4043 ft 169 kts 50°
2026-04-30 20:09 48.64008 8.96935 4026 ft 143 kts 70°
2026-04-30 20:09 48.64377 8.98308 4043 ft 139 kts 74°
2026-04-30 20:09 48.65004 9.01088 3880 ft 138 kts 77°
2026-04-30 20:10 48.65545 9.03837 3514 ft 136 kts 78°
2026-04-30 20:10 48.65805 9.05216 3324 ft 135 kts 78°
2026-04-30 20:10 48.66058 9.06574 3174 ft 134 kts 78°
2026-04-30 20:11 48.66564 9.09290 2805 ft 133 kts 77°
2026-04-30 20:11 48.66799 9.10551 2625 ft 132 kts 77°
2026-04-30 20:11 48.67043 9.11885 2448 ft 132 kts 77°
2026-04-30 20:12 48.67536 9.14558 2045 ft 130 kts 76°
2026-04-30 20:12 48.67793 9.15884 1893 ft 130 kts 76°
2026-04-30 20:12 48.68058 9.17207 1748 ft 130 kts 76°
2026-04-30 20:13 48.68306 9.18513 1575 ft 128 kts 76°
2026-04-30 20:13 48.68536 9.19814 1381 ft 126 kts 75°
2026-04-30 20:13 48.68773 9.21083 1262 ft 117 kts 73°
2026-04-30 20:13 48.68961 9.22086 1231 ft 89 kts 73°
2026-04-30 20:14 48.69108 9.22776 1218 ft 43 kts 65°
2026-04-30 20:14 48.69206 9.23012 1215 ft 15 kts 45°
2026-04-30 20:14 48.69260 9.23092 1215 ft 5 kts 41°
2026-04-30 20:14 48.69293 9.23138 1214 ft 9 kts 41°
2026-04-30 20:15 48.69371 9.23146 1215 ft 15 kts 327°
2026-04-30 20:15 48.69394 9.22984 1217 ft 19 kts 256°
2026-04-30 20:15 48.69359 9.22777 1220 ft 22 kts 256°
2026-04-30 20:15 48.69315 9.22556 1223 ft 20 kts 253°
2026-04-30 20:16 48.69274 9.22349 1225 ft 19 kts 254°
2026-04-30 20:16 48.69241 9.22161 1229 ft 17 kts 254°
2026-04-30 20:16 48.69210 9.21995 1233 ft 16 kts 253°
2026-04-30 20:16 48.69176 9.21820 1237 ft 18 kts 255°
2026-04-30 20:17 48.69143 9.21636 1244 ft 18 kts 256°
2026-04-30 20:17 48.69108 9.21447 1250 ft 18 kts 253°
2026-04-30 20:17 48.69072 9.21246 1255 ft 19 kts 258°
2026-04-30 20:17 48.69035 9.21057 1261 ft 18 kts 253°
2026-04-30 20:18 48.68998 9.20868 1268 ft 18 kts 255°
2026-04-30 20:18 48.68961 9.20683 1273 ft 18 kts 251°
2026-04-30 20:18 48.68921 9.20484 1277 ft 20 kts 253°
2026-04-30 20:18 48.68882 9.20284 1284 ft 19 kts 254°
2026-04-30 20:19 48.68845 9.20082 1290 ft 19 kts 254°
2026-04-30 20:19 48.68801 9.19962 1293 ft 20 kts 234°
2026-04-30 20:19 48.68726 9.19694 1298 ft 21 kts 254°
2026-04-30 20:19 48.68685 9.19488 1305 ft 19 kts 254°
2026-04-30 20:20 48.68652 9.19302 1309 ft 17 kts 255°
2026-04-30 20:20 48.68685 9.19170 1312 ft 13 kts 338°
2026-04-30 20:20 48.68763 9.19191 1313 ft 12 kts 63°
2026-04-30 20:20 48.68790 9.19322 1311 ft 5 kts 72°
2026-04-30 20:21 48.68795 9.19351 1310 ft 3 kts 73°
2026-04-30 20:21 48.68805 9.19400 1309 ft 5 kts 73°
2026-04-30 20:21 48.68824 9.19458 1308 ft 6 kts 37°
2026-04-30 20:21 48.68868 9.19452 1308 ft 6 kts 338°
2026-04-30 20:22 48.68898 9.19437 1309 ft 0 kts 344°